This demonstration page uses our WeatherBlox Daily Observations layout. Learn more.

41.55636, -103.73856

Hourly Observations for August 29, 2019

Temp ( °F °C ) Dew Point ( °F °C ) Humidity (%) Winds ( mph kmh ) Pressure ( in mb ) Visibility ( mi km ) Precip ( " mm )
12:58 am 00:58 Clear 77 25.1 44 6.9 31 31 SE 9 15 29.91 1013 10 16.0934 0 0
1:58 am 01:58 Clear 73 22.7 39 3.9 29 29 SSE 13 20 29.91 1013 10 16.0934 0 0
2:58 am 02:58 Clear 73 22.9 38 3.5 28 28 SSE 14 22 29.91 1013 10 16.0934 0 0
3:58 am 03:58 Clear 68 19.8 41 4.9 38 38 S 9 15 29.91 1013 10 16.0934 0 0
4:58 am 04:58 Clear 69 20.7 41 4.9 36 36 S 14 22 29.9 1012 10 16.0934 0 0
5:58 am 05:58 Clear 66 18.8 51 10.7 60 60 SW 8 13 29.89 1012 10 16.0934 0 0
6:58 am 06:58 Clear 69 20.3 51 10.7 54 54 SW 7 11 29.88 1012 10 16.0934 0 0
7:58 am 07:58 Clear 65 18.4 50 10 58 58 SW 8 13 29.87 1012 10 16.0934 0 0
8:58 am 08:58 Clear 65 18.2 46 7.9 51 51 SSW 6 9 29.86 1011 10 16.0934 0 0
9:58 am 09:58 Clear 64 17.6 45 7.3 51 51 W 5 7 29.84 1011 10 16.0934 0 0
10:58 am 10:58 Clear 54 12.4 44 6.6 68 68 WSW 9 15 29.86 1011 10 16.0934 0 0
11:58 am 11:58 Clear 54 12 41 5.1 63 63 WNW 10 17 29.92 1013 10 16.0934 0 0
1:58 pm 13:58 Sunny 57 13.9 47 8.3 69 69 NW 10 17 29.99 1016 10 16.0934 0 0
2:58 pm 14:58 Sunny 65 18.5 49 9.5 56 56 NW 10 17 29.98 1015 10 16.0934 0 0
3:57 pm 15:57 Sunny 69 20.5 47 8.2 45 45 NNE 16 26 30 1016 10 16.0934 0 0
4:56 pm 16:56 Sunny 72 22.1 45 7.4 39 39 NE 15 24 30.03 1017 10 16.0934 0 0
5:56 pm 17:56 Sunny 73 22.7 46 7.6 38 38 NNE 18 30 30.04 1017 10 16.0934 0 0
6:56 pm 18:56 Sunny 73 23 44 6.4 34 34 NE 14 22 30.04 1017 10 16.0934 0 0
7:56 pm 19:56 Sunny 74 23.6 45 7 34 34 NE 12 19 30.05 1018 10 16.0934 0 0
8:58 pm 20:58 Sunny 76 24.3 46 7.6 34 34 E 7 11 30.05 1018 10 16.0934 0 0
9:58 pm 21:58 Sunny 77 25 44 6.9 31 31 E 12 19 30.04 1017 10 16.0934 0 0
10:58 pm 22:58 Sunny 76 24.6 47 8.1 35 35 ENE 12 19 30.03 1017 10 16.0934 0 0
11:58 pm 23:58 Sunny 74 23.5 47 8.1 37 37 E 10 17 29.88 1012 10 16.0934 0 0

Powered by AerisWeather